{"data":{"norad_id":58408,"intl_designator":"2023-180G","name":"STARLINK-30906","alt_names":[],"object_type":"PAYLOAD","status":"ACTIVE","operator":null,"country":"US","launch_date":"2023-11-22","launch_site_code":"AFETR","launch_vehicle":null,"mission":null,"orbit_class":"UNKNOWN","rcs_meters":null,"size_class":null,"mass_kg":null,"dimensions":null,"purposes":["comms"],"wikipedia_slug":null,"has_3d_model":false,"image_url":null,"decayed_at":null,"tle_current":{"epoch":"2026-05-24T22:51:08.066016Z","epoch_age_seconds":89567,"freshness":"FRESH","line1":"1 58408U 23180G   26144.95217669  .00001875  00000+0  77647-4 0  9996","line2":"2 58408  43.0064 345.5945 0001901 275.8383  84.2252 15.27578801139130","mean_motion":15.27578801,"eccentricity":0.0001901,"inclination_deg":43.0064,"raan_deg":345.5945,"arg_perigee_deg":275.8383,"mean_anomaly_deg":84.2252,"bstar":7.7647e-5,"rev_number":13913,"period_min":94.266822703832,"perigee_km":481.74837411998,"apogee_km":484.3569984387,"semimajor_km":6861.1896862793,"source":"CELESTRAK","updated_at":"2026-05-25T13:38:18.617810Z"}}}